Regional Weather Roundup
Issued by NWS

Home | Current Version | Previous Version | Graphics & Text | Print | Product List | Glossary On
Versions: 1 2 3 4 5 6 7 8 9 10 11 12 13 14 15 16 17 18 19 20 21 22 23 24 25 26 27 28 29 30 31 32 33 34 35 36 37 38 39 40 41 42 43 44 45 46 47 48 49 50
000
ASUS43 KIND 251259
RWRIN

WEATHER ROUNDUP FOR INDIANA
NATIONAL WEATHER SERVICE INDIANAPOLIS IN
900 AM EDT WED MAY 25 2016

NOTE: "FAIR" INDICATES FEW OR NO CLOUDS BELOW 12,000 FEET WITH NO
SIGNIFICANT WEATHER AND/OR OBSTRUCTIONS TO VISIBILITY.

* - STATION DOES NOT REPORT WEATHER SUCH AS PRECIPITATION OR FOG.

+ - STATION NOT QUALITY CONTROLLED BY THE NATIONAL WEATHER SERVICE.
    USE DATA WITH CAUTION...ESPECIALLY DEWPOINT AND RELATIVE
    HUMIDITY OBSERVATIONS.

INZ001>003-010>013-019-020-251400-
NORTHWEST INDIANA

CITY           SKY/WX    TMP DP  RH WIND       PRES   REMARKS
GARY /AIRPORT/ MOSUNNY   73  66  78 S6        30.04R
RENSSELAER +   SUNNY     72  61  68 S14       30.06S

$$

LMZ046-743>745-251400-
SOUTHERN LAKE MICHIGAN

STATION/POSITION TIME  TEMP    WIND        PRES    WAVE
                       AIR SEA DIR/SP/G            HT
                 (UTC) (F)     (DEG/KT/KT) (MB)    (FT)
BURNS HARBOR     1200   69     180/  8/ 24 1016.9R
MICHIGAN CITY    1200   69     140/  7/  8   N/A
5NW MICH CITY    1200   64 57  190/  4/  6   N/A     1

$$

INZ004-005-014>016-021>024-251400-
NORTH CENTRAL INDIANA

CITY           SKY/WX    TMP DP  RH WIND       PRES   REMARKS
ELKHART        SUNNY     72  63  73 SW6       30.07R
GOSHEN         SUNNY     72  56  57 SW9       30.07R
SOUTH BEND     SUNNY     72  59  63 S8        30.07R

$$

INZ006>009-017-018-025>027-251400-
NORTHEAST INDIANA

CITY           SKY/WX    TMP DP  RH WIND       PRES   REMARKS
ANGOLA *+      SUNNY     70  61  73 S5        30.08R
FORT WAYNE     CLOUDY    71  56  58 S12       30.09R

$$

INZ028-029-035-036-043>045-051>053-251400-
WEST CENTRAL INDIANA

CITY           SKY/WX    TMP DP  RH WIND       PRES   REMARKS
CRAWFORDSVL +  MOSUNNY   68  60  75 SW9       30.08S
GREENCASTLE +  MOSUNNY   68  63  83 S6        30.10R
LAFAYETTE      MOSUNNY   70  59  68 S5        30.06R
TERRE HAUTE    SUNNY     71  61  70 S7        30.07S

$$

INZ030>032-037>040-046>048-054>057-064-065-251400-
CENTRAL INDIANA

CITY           SKY/WX    TMP DP  RH WIND       PRES   REMARKS
ANDERSON       PTSUNNY   68  57  68 S6        30.11
COLUMBUS       MOSUNNY   68  61  77 S8        30.10R
INDIANAPOLIS   PTSUNNY   69  59  70 S9        30.08R
-EAGLE CREEK   CLOUDY    70  58  65 S8        30.09R
KOKOMO *+      CLOUDY    68  55  64 S9        30.09R
SHELBYVILLE    CLOUDY    72  57  59 S9        30.09R

$$

INZ033-034-041-042-049-050-058-059-251400-
EAST CENTRAL INDIANA

CITY           SKY/WX    TMP DP  RH WIND       PRES   REMARKS
MUNCIE         CLOUDY    71  56  58 S8        30.10R

$$

INZ060-061-067>069-081>083-085>088-251400-
SOUTHWEST INDIANA

CITY           SKY/WX    TMP DP  RH WIND       PRES   REMARKS
EVANSVILLE     CLOUDY    69  61  75 CALM      30.09R
HUNTINGBURG *+ CLOUDY    70  59  68 SW5       30.10R

$$

INZ062-063-066-070>080-084-089>092-251400-
SOUTH CENTRAL AND SOUTHEAST INDIANA

CITY           SKY/WX    TMP DP  RH WIND       PRES   REMARKS
BLOOMINGTON    MOSUNNY   71  59  65 S5        30.09S
MADISON *+     CLOUDY    66  55  68 SE5       30.14R
SEYMOUR +      CLOUDY    70  59  68 SE7       30.10R

$$





USA.gov is the U.S. government's official web portal to all federal, state and local government web resources and services.